Temperature
29 30 31 31 32 32 32 32 31 31 30 30 30 29 29 28 27 27 27 26 26 25 24 24 24 23 23 23 22 22 22 22 21 21 21 20 20 20 20 20 19 19 19 19
27 29 30 30 31 32 32 32 31 31 30 30 30 29 28 27 27 26 26 25 25 24 23 23 23 23 22 22 22 22 22 21 21 21 20 20 20 20 20 19 19 19 19 19
26 28 29 29 30 31 31 31 31 30 29 29 28 28 27 27 26 25 24 24 23 23 23 23 22 22 22 22 21 21 21 21 21 20 20 20 19 19 19 19 19 19 18 18
25 26 25 28 31 31 30 30 30 29 29 28 27 27 26 25 25 25 24 23 23 23 22 22 22 22 21 21 21 21 21 20 20 20 19 19 19 19 19 19 19 18 18 18
24 25 26 28 29 30 29 28 29 29 28 28 27 26 25 24 24 24 23 22 22 22 22 21 21 21 21 20 20 20 20 20 19 19 19 19 19 19 18 18 18 18 18 18
24 24 25 26 28 29 28 26 27 27 27 27 26 26 25 23 23 23 22 21 21 21 21 20 20 20 20 20 20 20 20 19 19 19 19 19 18 18 18 18 18 17 17 17
23 24 25 26 27 27 25 24 25 25 25 25 24 24 23 23 22 21 21 21 20 20 20 20 19 19 19 19 19 19 19 19 19 18 18 18 18 18 18 17 17 17 17 17
23 23 23 25 25 24 23 23 23 23 23 23 22 22 22 22 21 20 20 20 20 19 19 19 19 18 18 18 18 18 18 18 18 18 17 17 17 17 17 17 17 16 16 16
23 23 22 23 22 22 22 22 22 22 22 22 21 21 21 21 20 19 19 19 18 18 18 18 18 17 17 17 17 17 17 17 17 17 17 17 17 16 16 16 16 16 16 16
21 22 22 22 22 21 21 21 21 21 21 21 21 20 20 19 19 18 18 18 18 17 17 17 16 16 16 16 16 16 16 16 16 16 16 16 16 16 16 15 15 15 15 15
21 21 21 21 21 20 20 20 20 20 20 20 20 19 19 18 18 17 17 17 17 16 16 16 16 16 16 16 16 15 15 15 15 16 16 15 15 15 15 15 15 15 15 15
20 20 20 20 20 20 19 19 19 19 19 19 18 18 18 17 17 17 16 16 16 15 15 15 15 15 15 15 15 15 15 15 15 15 15 15 15 15 15 15 15 15 15 14
19 19 19 19 19 19 19 19 19 18 18 18 17 17 17 16 16 16 15 15 15 15 15 15 14 14 14 14 15 14 15 14 14 14 15 14 14 14 14 14 14 14 14 14
18 18 18 18 18 18 18 18 18 17 17 17 16 16 16 16 15 15 15 14 14 14 14 14 14 14 14 14 14 14 14 14 14 14 14 14 14 14 14 14 14 14 13 13
18 18 18 17 17 17 17 17 17 17 16 16 16 16 15 15 14 14 14 14 14 14 13 13 13 13 14 14 14 14 14 14 14 14 14 14 14 14 14 14 13 13 13 13
17 17 17 17 17 17 17 17 16 16 16 15 15 15 14 14 14 13 13 13 13 13 13 13 13 13 13 13 13 13 13 13 14 13 14 13 13 13 13 13 13 13 13 13
16 16 17 16 16 16 16 16 16 15 15 14 14 14 14 13 13 13 13 13 13 13 12 13 12 12 12 13 13 13 13 13 13 13 13 13 13 13 13 13 13 13 13 13
16 16 16 16 16 16 16 15 15 15 14 14 13 13 13 13 13 13 12 12 12 12 12 12 12 12 12 12 12 12 13 13 13 13 13 13 13 13 12 12 12 12 12 12
15 15 15 15 15 15 15 15 14 14 14 13 13 13 13 12 12 12 12 12 12 12 12 12 12 12 12 12 12 12 12 12 12 13 13 13 12 12 12 12 12 12 12 11
15 15 15 15 15 14 14 14 14 13 13 13 12 12 12 12 12 12 11 11 11 11 11 11 11 11 11 12 12 12 12 12 12 12 12 12 12 12 12 12 11 11 11 11
14 14 14 14 14 14 13 13 13 12 12 12 12 12 11 11 11 11 11 11 11 11 11 11 11 11 11 11 12 12 12 12 12 12 12 12 12 11 11 11 11 11 11 10
14 14 14 14 13 13 13 12 12 12 12 11 11 11 11 11 11 11 11 11 11 11 11 11 11 11 11 11 11 11 11 11 11 11 11 11 11 11 11 10 10 10 10 10
13 13 13 13 13 13 12 12 12 12 11 11 11 11 11 11 11 11 11 11 11 11 11 11 11 11 11 11 11 11 11 11 11 11 11 11 11 10 10 10 10 10 10 10
13 13 13 12 12 12 12 12 12 12 12 11 11 11 11 11 11 11 11 11 11 11 11 11 11 11 11 11 11 11 11 11 11 11 10 10 10 10 10 10 10 9 9 9
12 12 12 12 12 12 12 12 12 12 12 11 11 11 11 11 11 11 10 10 10 10 10 10 11 11 11 11 10 10 10 10 10 10 10 10 10 10 10 10 9 9 9 9
12 12 12 12 12 12 12 12 12 12 12 11 11 11 11 11 11 11 10 10 10 10 10 10 10 10 10 10 10 10 10 10 10 10 10 10 10 10 9 9 9 9 9 8
12 12 12 12 12 12 12 12 12 11 11 11 11 11 11 11 11 11 10 10 10 10 10 10 10 10 10 10 10 10 10 10 10 10 10 9 9 9 9 9 9 8 8 8
Wind_Speed
19 19 17 15 17 18 18 16 14 10 8 5 3 5 5 5 5 5 5 5 6 6 4 4 3 3 3 4 4 5 6 7 8 7 6 6 6 6 6 6 7 6 6 6
17 20 20 19 18 17 17 16 14 11 7 4 3 3 4 4 5 5 6 5 5 4 4 3 2 2 2 3 3 5 6 8 7 6 6 6 6 6 6 6 5 6 6 6
15 18 19 21 18 17 14 13 11 9 4 3 2 3 3 3 5 5 5 3 3 2 1 2 2 2 2 3 3 4 5 6 6 6 6 6 7 6 6 6 5 5 5 5
13 15 20 15 12 11 11 9 6 3 4 2 1 3 3 4 5 4 3 2 2 3 2 1 1 1 0 2 3 4 4 4 5 6 6 6 6 6 6 5 5 5 5 5
11 16 18 13 11 11 10 6 2 1 2 2 1 2 3 5 5 4 4 4 3 3 3 2 1 1 2 2 2 4 4 4 4 5 6 6 7 6 5 4 5 5 5 5
12 14 14 6 4 4 5 5 2 0 1 1 1 3 1 3 3 4 5 4 3 4 3 3 2 2 2 3 3 3 4 4 4 5 6 6 6 5 4 4 4 4 4 4
15 15 10 5 4 5 6 0 5 4 3 2 2 4 4 3 3 3 4 4 3 3 3 3 3 2 3 3 3 3 3 3 3 4 5 6 5 4 5 5 5 5 4 4
13 15 8 6 4 3 4 5 5 5 5 5 4 4 4 3 3 3 4 4 4 3 3 3 3 3 3 4 3 3 3 3 3 4 5 4 4 5 5 5 6 6 6 5
5 3 4 6 6 6 6 6 5 4 4 4 4 4 5 3 3 3 4 4 4 4 4 3 3 3 4 3 3 3 3 3 3 3 4 4 5 5 4 4 4 5 5 4
3 2 2 4 4 5 6 6 7 7 6 4 4 5 5 3 3 3 3 4 4 4 4 4 4 4 4 3 2 3 4 3 3 3 3 3 3 4 4 4 4 5 4 4
5 3 3 3 4 5 5 6 7 7 6 5 5 5 5 3 2 3 3 3 4 4 4 4 4 4 4 3 3 4 4 4 4 3 2 2 2 2 3 3 4 4 4 4
5 4 3 4 5 5 5 7 7 8 7 6 5 6 6 5 3 3 4 4 4 4 5 5 4 4 4 3 3 4 4 4 4 3 3 3 2 1 2 2 3 3 3 3
4 5 5 6 5 5 6 6 8 8 6 6 5 4 5 5 4 4 4 4 4 4 5 5 5 5 4 3 3 4 5 5 4 4 3 3 3 3 3 1 2 2 3 4
3 5 6 6 6 6 7 7 7 7 6 6 5 4 4 5 5 4 5 5 6 5 5 5 5 5 4 3 4 4 5 6 5 4 4 4 4 4 4 4 4 3 3 5
4 6 7 6 6 6 6 7 6 6 6 6 5 4 4 4 5 5 5 5 5 5 6 6 5 5 4 4 5 5 5 5 4 3 4 3 3 4 4 4 4 4 4 4
6 7 7 6 6 6 6 7 6 6 6 6 5 4 4 4 5 5 5 5 5 6 6 5 5 5 5 5 5 5 4 5 5 4 4 4 3 3 3 4 4 4 4 4
7 7 7 6 7 7 7 7 6 6 6 6 5 4 4 5 5 5 5 5 4 5 5 5 5 6 5 5 4 4 4 3 4 4 4 3 3 3 3 3 4 4 4 5
6 6 7 8 7 8 8 7 6 6 5 5 5 4 5 5 6 6 5 5 4 5 5 5 4 4 4 3 3 4 4 3 3 3 3 2 2 2 2 3 4 3 3 4
7 7 7 8 8 8 8 7 6 5 5 4 5 5 5 5 5 5 5 5 5 5 5 5 4 4 3 3 4 3 4 4 3 3 3 3 3 3 3 3 3 2 3 4
7 7 7 7 7 7 8 7 6 6 5 5 5 5 5 6 6 5 5 5 5 5 4 3 3 4 4 4 4 4 4 3 3 3 2 3 3 3 2 2 2 3 3 4
5 5 6 5 5 5 6 6 6 6 6 5 5 5 5 6 6 6 5 5 4 3 3 3 3 3 3 4 5 4 3 2 2 2 2 2 1 1 1 2 2 3 3 3
4 4 5 5 5 4 4 4 5 5 5 4 5 5 6 6 6 6 5 3 3 2 3 3 3 2 3 4 3 3 2 1 1 1 1 1 2 2 2 3 3 3 3 3
4 4 5 5 5 4 4 4 4 4 4 4 4 5 5 5 4 4 4 3 2 3 3 2 0 1 2 3 2 2 1 1 1 1 0 1 1 2 2 3 3 3 3 3
4 4 4 4 4 4 4 4 4 3 3 3 3 3 3 4 3 2 2 2 2 1 2 1 1 1 2 2 1 1 1 1 0 0 1 0 0 0 1 2 3 3 3 3
5 4 4 3 3 3 3 3 3 3 3 3 3 3 2 2 2 2 2 2 2 1 1 1 1 2 2 1 1 0 0 1 1 2 2 1 0 1 1 1 2 2 2 3
3 3 3 3 3 3 4 3 3 3 3 3 3 3 3 2 2 2 1 1 2 2 2 2 1 1 1 1 1 1 0 2 2 1 1 1 1 1 1 1 1 1 2 2
3 2 2 2 2 2 3 3 3 3 3 4 3 3 3 3 2 2 2 1 1 1 1 2 1 1 0 0 0 0 0 1 1 1 2 2 1 1 1 2 2 2 3 3
Wind_Direction
266 268 269 258 249 242 240 247 254 248 223 190 144 117 100 81 75 76 81 86 86 94 100 113 121 131 148 166 172 183 184 193 192 193 201 206 205 203 202 203 205 195 200 200
269 266 267 266 259 253 248 248 247 249 243 170 130 100 112 110 102 79 66 59 64 82 103 112 130 151 159 177 183 185 188 198 193 189 193 195 198 200 200 198 201 196 198 194
265 266 265 256 258 257 255 251 250 247 223 154 140 98 84 74 89 86 77 50 32 42 80 144 147 147 175 185 188 194 199 198 189 190 193 193 197 194 197 197 197 199 205 193
264 266 257 257 261 260 259 258 250 211 139 123 102 98 87 73 79 74 61 58 39 8 360 8 49 48 286 217 193 195 206 208 191 189 195 197 200 199 203 200 198 198 199 193
255 254 253 251 252 252 254 257 269 203 175 159 181 142 96 63 45 45 40 42 27 354 337 355 341 323 301 251 222 211 209 213 204 199 204 205 205 205 204 200 202 199 195 188
249 255 254 263 291 303 267 230 11 65 209 285 322 238 84 34 16 20 27 29 9 348 344 346 341 312 285 269 254 240 231 223 211 204 208 211 207 198 196 200 205 199 193 189
243 253 256 292 312 288 252 2 26 17 18 2 355 350 348 15 32 22 12 0 353 354 343 342 332 308 278 275 266 267 272 247 227 207 208 208 197 196 193 194 192 191 189 190
238 249 253 10 4 12 27 19 19 11 7 14 19 358 339 359 32 18 4 353 347 352 347 343 333 311 288 281 286 287 276 264 250 236 233 215 198 202 197 195 191 188 184 183
260 241 76 46 53 44 24 4 352 353 350 347 338 328 333 355 13 3 355 347 342 341 343 342 335 322 299 300 304 297 283 261 252 251 239 206 193 196 190 191 201 201 195 187
268 225 16 32 22 20 13 355 346 336 333 330 322 319 322 340 352 347 343 336 332 333 332 331 332 325 314 309 299 284 278 269 251 234 227 203 192 192 189 198 206 200 199 198
259 258 294 336 341 353 347 335 332 331 329 324 320 319 320 325 333 325 314 315 317 314 309 306 311 311 309 312 310 291 280 260 241 234 213 196 199 222 204 192 203 206 207 201
285 338 326 317 327 336 334 327 326 324 324 328 324 321 322 314 314 311 308 314 306 300 300 298 297 295 295 298 289 277 268 260 250 239 222 205 184 166 52 162 169 171 179 183
310 324 320 312 319 323 317 319 320 319 324 322 317 313 304 297 300 302 300 300 295 291 291 293 292 288 286 284 278 269 264 261 257 243 234 225 208 202 201 159 117 134 164 164
313 310 298 304 308 309 313 316 316 317 321 316 315 307 298 300 299 298 300 299 296 295 292 289 284 284 281 278 277 270 265 261 251 236 225 221 220 217 206 194 181 176 170 167
288 288 288 294 299 306 311 310 309 307 312 314 317 310 302 300 298 298 298 296 295 294 293 294 291 290 287 273 268 268 269 261 248 239 237 233 227 219 208 195 187 162 159 159
291 288 286 292 298 300 305 306 306 307 310 311 314 314 312 307 304 304 304 300 293 294 298 298 291 287 278 267 265 269 264 242 228 228 230 220 216 211 205 195 189 184 173 161
280 284 294 297 298 301 303 302 302 307 312 309 306 311 312 306 301 302 303 300 302 303 301 298 293 290 284 275 270 276 277 247 224 228 232 221 214 206 200 193 190 190 175 165
276 286 292 293 297 299 297 298 303 310 311 312 310 305 303 300 300 301 300 299 304 309 307 299 297 299 303 299 287 276 273 259 241 240 232 219 222 214 208 206 207 193 168 165
278 282 287 296 303 301 300 297 302 307 307 304 301 300 298 295 295 296 293 290 292 294 299 302 304 300 296 282 275 268 264 257 246 241 233 202 213 217 213 211 201 170 162 159
280 285 290 297 303 303 306 309 311 310 308 305 307 305 300 299 296 293 281 277 278 279 282 295 293 287 281 280 271 268 267 262 257 251 233 218 220 210 202 189 178 172 170 165
291 292 295 295 297 300 305 315 319 314 314 312 307 301 299 297 294 289 281 277 274 274 273 262 265 275 285 293 274 268 260 258 258 257 244 217 190 185 183 180 181 178 171 165
309 309 309 309 307 309 313 317 313 310 308 308 304 300 299 298 295 293 292 282 280 284 266 260 266 291 309 302 289 288 294 287 274 262 223 186 173 180 186 186 182 175 170 166
325 322 317 314 316 319 318 315 311 308 298 294 289 289 294 302 303 305 308 312 302 302 287 288 340 23 314 286 287 297 303 295 277 288 293 229 205 201 194 190 182 177 168 167
320 316 309 310 315 315 316 317 316 310 301 296 296 302 302 307 315 318 324 356 8 324 322 11 63 343 291 284 306 312 307 303 288 21 19 11 52 167 181 178 169 172 173 174
316 319 321 331 330 331 326 324 329 324 318 316 325 334 322 328 337 342 342 3 46 11 352 27 322 291 287 313 358 8 322 353 44 56 54 38 34 107 120 149 156 166 168 166
324 317 325 325 331 329 329 336 341 341 340 344 350 345 345 3 22 22 19 41 45 14 3 17 24 295 310 340 25 32 140 128 120 117 101 84 73 76 92 104 122 143 144 145
309 314 309 310 320 338 343 347 348 351 351 351 349 355 357 3 1 5 22 19 36 59 39 15 3 5 287 260 237 153 80 91 96 82 80 86 94 103 110 110 123 127 127 134
Height
1448 1440 1437 1438 1437 1435 1439 1443 1452 1452 1453 1454 1454 1457 1462 1464 1467 1468 1470 1472 1474 1477 1479 1482 1484 1486 1488 1490 1492 1493 1495 1496 1498 1499 1501 1503 1504 1505 1506 1507 1508 1509 1510 1511
1454 1443 1439 1439 1435 1434 1435 1437 1442 1447 1451 1450 1454 1458 1462 1465 1468 1470 1471 1474 1476 1478 1479 1481 1483 1485 1486 1487 1489 1490 1491 1493 1495 1496 1497 1498 1500 1502 1503 1504 1504 1505 1505 1507
1463 1449 1444 1449 1438 1436 1436 1434 1440 1449 1452 1452 1456 1460 1463 1465 1468 1471 1473 1476 1476 1477 1479 1480 1481 1482 1483 1485 1486 1487 1488 1490 1491 1492 1493 1494 1495 1497 1498 1499 1500 1501 1502 1503
1464 1461 1469 1445 1430 1431 1435 1436 1438 1443 1448 1453 1458 1462 1465 1467 1468 1470 1472 1475 1475 1477 1478 1479 1480 1481 1481 1482 1483 1484 1485 1486 1487 1488 1489 1491 1491 1492 1494 1495 1496 1497 1497 1498
1466 1465 1455 1441 1433 1434 1438 1442 1440 1444 1449 1453 1458 1461 1465 1467 1469 1471 1472 1474 1475 1476 1477 1477 1478 1478 1479 1479 1480 1480 1481 1482 1483 1484 1485 1486 1487 1488 1490 1491 1492 1492 1493 1494
1465 1467 1464 1449 1437 1436 1440 1449 1446 1448 1452 1455 1458 1462 1467 1468 1470 1471 1472 1473 1474 1475 1475 1476 1476 1476 1476 1476 1477 1477 1477 1478 1479 1479 1480 1482 1483 1484 1486 1487 1488 1489 1490 1491
1464 1463 1453 1443 1440 1441 1455 1460 1454 1453 1455 1458 1461 1464 1468 1468 1470 1471 1472 1473 1473 1473 1473 1473 1473 1473 1473 1473 1473 1473 1474 1474 1475 1475 1475 1476 1478 1480 1480 1482 1483 1484 1486 1486
1458 1462 1461 1449 1446 1452 1459 1457 1457 1458 1459 1461 1464 1465 1466 1467 1469 1470 1471 1471 1471 1471 1471 1471 1471 1470 1470 1470 1469 1470 1470 1471 1471 1471 1471 1472 1473 1475 1476 1477 1478 1478 1480 1481
1454 1458 1456 1454 1455 1458 1459 1460 1460 1459 1461 1462 1463 1465 1466 1466 1467 1468 1469 1469 1469 1469 1468 1468 1468 1468 1467 1466 1466 1465 1466 1466 1467 1467 1467 1467 1468 1470 1471 1472 1474 1475 1476 1476
1455 1455 1455 1457 1458 1459 1460 1461 1461 1461 1461 1462 1463 1464 1464 1465 1466 1467 1467 1467 1467 1467 1466 1465 1465 1464 1464 1463 1462 1462 1462 1462 1463 1463 1463 1463 1464 1465 1466 1467 1468 1469 1470 1471
1454 1455 1456 1457 1460 1461 1461 1461 1461 1461 1461 1462 1462 1463 1464 1464 1464 1465 1465 1465 1465 1464 1463 1462 1462 1461 1460 1460 1460 1459 1459 1459 1459 1459 1459 1459 1460 1461 1461 1462 1464 1465 1466 1467
1456 1458 1459 1459 1460 1461 1461 1461 1461 1461 1461 1461 1462 1462 1463 1462 1462 1462 1462 1462 1461 1461 1460 1459 1458 1457 1457 1456 1456 1456 1455 1456 1455 1456 1456 1456 1456 1456 1457 1459 1460 1462 1463 1464
1458 1458 1459 1459 1460 1460 1461 1461 1461 1461 1460 1460 1460 1460 1460 1461 1460 1460 1459 1458 1458 1457 1456 1455 1454 1454 1453 1453 1453 1452 1452 1452 1451 1452 1452 1452 1452 1452 1452 1454 1456 1458 1459 1460
1458 1459 1458 1458 1458 1460 1460 1460 1460 1459 1459 1459 1458 1458 1458 1458 1457 1456 1455 1455 1454 1453 1452 1452 1451 1450 1449 1449 1449 1448 1448 1448 1448 1448 1448 1448 1448 1448 1449 1450 1451 1453 1455 1456
1458 1458 1458 1457 1458 1458 1458 1458 1458 1458 1457 1457 1456 1455 1455 1454 1453 1452 1452 1451 1450 1449 1448 1447 1446 1445 1445 1445 1445 1444 1444 1444 1443 1443 1444 1445 1445 1445 1445 1446 1448 1449 1451 1452
1457 1457 1456 1456 1456 1457 1457 1457 1456 1455 1455 1454 1453 1452 1452 1451 1450 1449 1448 1447 1446 1445 1444 1443 1442 1441 1441 1441 1440 1440 1439 1439 1440 1439 1441 1441 1442 1441 1442 1443 1445 1446 1447 1449
1456 1456 1455 1456 1456 1455 1455 1455 1454 1453 1453 1452 1451 1450 1448 1447 1446 1445 1444 1443 1442 1441 1440 1438 1437 1437 1437 1436 1436 1436 1436 1436 1436 1437 1437 1438 1439 1439 1439 1440 1441 1443 1444 1445
1454 1455 1455 1454 1454 1453 1453 1452 1452 1451 1450 1449 1448 1446 1445 1444 1443 1441 1440 1439 1438 1437 1435 1434 1433 1432 1432 1432 1433 1433 1433 1432 1433 1434 1435 1435 1435 1436 1436 1437 1439 1439 1440 1442
1452 1452 1453 1452 1451 1451 1450 1450 1449 1448 1447 1445 1444 1443 1442 1441 1439 1438 1437 1435 1434 1433 1432 1431 1430 1429 1428 1429 1430 1430 1430 1430 1430 1430 1431 1431 1432 1433 1434 1435 1436 1437 1438 1439
1450 1450 1450 1450 1450 1449 1448 1447 1446 1445 1444 1442 1441 1439 1438 1437 1436 1435 1433 1432 1431 1430 1428 1427 1426 1426 1426 1426 1426 1427 1427 1427 1427 1427 1428 1428 1429 1430 1431 1432 1433 1434 1435 1436
1448 1448 1448 1448 1448 1447 1446 1445 1444 1442 1441 1439 1438 1437 1435 1434 1433 1432 1430 1429 1428 1427 1425 1425 1424 1424 1424 1424 1424 1425 1424 1424 1424 1425 1425 1426 1426 1427 1428 1429 1430 1431 1433 1434
1447 1447 1447 1446 1446 1445 1444 1442 1441 1440 1438 1437 1436 1435 1433 1432 1430 1429 1427 1427 1425 1424 1423 1423 1423 1422 1422 1422 1422 1422 1422 1422 1423 1423 1423 1423 1424 1425 1426 1426 1427 1429 1430 1431
1446 1445 1445 1444 1444 1443 1441 1440 1439 1437 1436 1435 1434 1433 1431 1430 1429 1427 1426 1425 1423 1422 1422 1421 1421 1421 1421 1421 1421 1421 1420 1421 1421 1421 1421 1422 1422 1423 1423 1424 1425 1426 1428 1429
1445 1444 1443 1443 1442 1441 1439 1438 1437 1436 1435 1434 1433 1432 1430 1429 1427 1426 1424 1423 1422 1421 1421 1420 1419 1419 1420 1420 1420 1419 1419 1419 1420 1420 1420 1421 1421 1421 1422 1422 1423 1424 1426 1427
1444 1443 1442 1442 1440 1439 1438 1437 1436 1435 1434 1433 1432 1431 1429 1428 1427 1425 1424 1423 1422 1421 1420 1420 1419 1419 1419 1419 1419 1419 1419 1419 1419 1420 1420 1420 1420 1420 1421 1421 1422 1423 1424 1425
1443 1442 1442 1441 1440 1439 1438 1437 1436 1435 1434 1433 1432 1430 1429 1428 1427 1425 1424 1424 1423 1422 1421 1420 1419 1419 1419 1419 1419 1419 1419 1419 1419 1420 1420 1420 1421 1421 1421 1421 1421 1421 1422 1423
1442 1442 1441 1440 1440 1439 1438 1437 1436 1435 1434 1433 1431 1430 1429 1428 1427 1426 1425 1424 1424 1423 1422 1422 1421 1421 1420 1420 1420 1420 1419 1420 1420 1420 1420 1420 1421 1421 1421 1421 1421 1421 1421 1422